Location: Unspecified
(0.0000°N, 0.0000°E)
Time: 12:13:15
(UTC+00:00)

Vanguard 2 Rocket - Pass Details

Date: 20 December 2018
Orbit: 554 x 3326 km, 32.9° (Epoch: 15 July)

Event Time Altitude Azimuth Distance (km) Brightness Sun altitude
Rises 12:53:28 0° 298° (WNW) 3,932 10.2 62.9°
Reaches altitude 10° 12:55:42 10° 296° (WNW) 3,229 9.9 62.6°
Maximum altitude 13:04:06 71° 213° (SSW) 1,917 11.0 61.5°
Drops below altitude 10° 13:19:27 10° 131° (SE) 5,569 11.1 59.3°
Sets 13:24:38 0° 129° (SE) 6,904 11.4 58.4°
